Time,TemperatureF,DewpointF,PressureIn,WindDirection,WindDirectionDegrees,WindSpeedMPH,WindSpeedGustMPH,Humidity,HourlyPrecipIn,Conditions,Clouds,dailyrainin,SolarRadiationWatts/m^2,SoftwareType,DateUTC
2013-02-20 00:03:00,37.6,26.0,29.72,West,279,6.0,-999.0,64,-99.99,,,0.00,0,weatherlink.com 1.10,2013-02-20 05:03:00,
2013-02-20 00:19:00,37.1,26.0,29.73,WNW,292,6.0,-999.0,64,-99.99,,,0.00,0,weatherlink.com 1.10,2013-02-20 05:19:00,
2013-02-20 00:33:00,36.8,26.0,29.73,West,281,13.0,-999.0,64,-99.99,,,0.00,0,weatherlink.com 1.10,2013-02-20 05:33:00,
2013-02-20 00:48:00,36.5,24.0,29.72,WNW,284,9.0,-999.0,62,-99.99,,,0.00,0,weatherlink.com 1.10,2013-02-20 05:48:00,
2013-02-20 01:04:00,36.3,24.0,29.73,WNW,294,12.0,-999.0,62,-99.99,,,0.00,0,weatherlink.com 1.10,2013-02-20 06:04:00,
2013-02-20 01:19:00,35.9,24.0,29.73,WNW,286,3.0,-999.0,63,-99.99,,,0.00,0,weatherlink.com 1.10,2013-02-20 06:19:00,
2013-02-20 01:34:00,35.5,25.0,29.73,WSW,247,6.0,-999.0,65,-99.99,,,0.00,0,weatherlink.com 1.10,2013-02-20 06:34:00,
2013-02-20 01:49:00,35.3,25.0,29.73,West,269,3.0,-999.0,66,-99.99,,,0.00,0,weatherlink.com 1.10,2013-02-20 06:49:00,
2013-02-20 02:04:00,34.8,24.0,29.74,West,263,6.0,-999.0,66,-99.99,,,0.00,0,weatherlink.com 1.10,2013-02-20 07:04:00,
2013-02-20 02:19:00,34.6,23.0,29.74,West,270,8.0,-999.0,64,-99.99,,,0.00,0,weatherlink.com 1.10,2013-02-20 07:19:00,
2013-02-20 02:34:00,34.1,23.0,29.75,West,278,7.0,-999.0,63,-99.99,,,0.00,0,weatherlink.com 1.10,2013-02-20 07:34:00,
2013-02-20 02:49:00,33.6,22.0,29.75,SW,227,2.0,-999.0,63,-99.99,,,0.00,0,weatherlink.com 1.10,2013-02-20 07:49:00,
2013-02-20 03:19:00,32.7,21.0,29.75,NW,307,6.0,-999.0,63,-99.99,,,0.00,0,weatherlink.com 1.10,2013-02-20 08:19:00,
2013-02-20 03:34:00,32.4,21.0,29.75,WNW,302,5.0,-999.0,63,-99.99,,,0.00,0,weatherlink.com 1.10,2013-02-20 08:34:00,
2013-02-20 03:49:00,32.0,21.0,29.76,WNW,284,7.0,-999.0,63,-99.99,,,0.00,0,weatherlink.com 1.10,2013-02-20 08:49:00,
2013-02-20 04:04:00,31.9,20.0,29.76,West,275,9.0,-999.0,62,-99.99,,,0.00,0,weatherlink.com 1.10,2013-02-20 09:04:00,
2013-02-20 04:19:00,31.8,19.0,29.76,West,267,8.0,-999.0,60,-99.99,,,0.00,0,weatherlink.com 1.10,2013-02-20 09:19:00,
2013-02-20 04:34:00,31.7,19.0,29.77,WSW,256,7.0,-999.0,59,-99.99,,,0.00,0,weatherlink.com 1.10,2013-02-20 09:34:00,
2013-02-20 04:49:00,31.4,18.0,29.77,West,274,10.0,-999.0,59,-99.99,,,0.00,0,weatherlink.com 1.10,2013-02-20 09:49:00,
2013-02-20 05:04:00,31.3,18.0,29.78,West,273,6.0,-999.0,59,-99.99,,,0.00,0,weatherlink.com 1.10,2013-02-20 10:04:00,
2013-02-20 05:19:00,31.0,19.0,29.78,West,273,3.0,-999.0,61,-99.99,,,0.00,0,weatherlink.com 1.10,2013-02-20 10:19:00,
2013-02-20 05:34:00,31.0,19.0,29.79,WNW,286,2.0,-999.0,61,-99.99,,,0.00,0,weatherlink.com 1.10,2013-02-20 10:34:00,
2013-02-20 05:50:00,30.8,19.0,29.79,West,281,3.0,-999.0,62,-99.99,,,0.00,0,weatherlink.com 1.10,2013-02-20 10:50:00,
2013-02-20 06:04:00,30.5,19.0,29.79,WNW,282,3.0,-999.0,63,-99.99,,,0.00,0,weatherlink.com 1.10,2013-02-20 11:04:00,
2013-02-20 06:20:00,30.6,19.0,29.80,WNW,287,3.0,-999.0,62,-99.99,,,0.00,0,weatherlink.com 1.10,2013-02-20 11:20:00,
2013-02-20 06:35:00,30.3,19.0,29.81,West,266,6.0,-999.0,62,-99.99,,,0.00,0,weatherlink.com 1.10,2013-02-20 11:35:00,
2013-02-20 06:49:00,30.2,18.0,29.82,West,276,5.0,-999.0,60,-99.99,,,0.00,7,weatherlink.com 1.10,2013-02-20 11:49:00,
2013-02-20 07:04:00,30.1,17.0,29.83,West,281,4.0,-999.0,59,-99.99,,,0.00,16,weatherlink.com 1.10,2013-02-20 12:04:00,
2013-02-20 07:20:00,30.0,17.0,29.83,West,265,4.0,-999.0,59,-99.99,,,0.00,28,weatherlink.com 1.10,2013-02-20 12:20:00,
2013-02-20 07:35:00,29.9,17.0,29.84,NW,306,5.0,-999.0,59,-99.99,,,0.00,44,weatherlink.com 1.10,2013-02-20 12:35:00,
2013-02-20 07:50:00,30.2,16.0,29.85,West,267,13.0,-999.0,57,-99.99,,,0.00,72,weatherlink.com 1.10,2013-02-20 12:50:00,
2013-02-20 08:05:00,29.9,15.0,29.86,NW,312,13.0,-999.0,55,-99.99,,,0.00,67,weatherlink.com 1.10,2013-02-20 13:05:00,
2013-02-20 08:20:00,30.1,15.0,29.86,WNW,290,5.0,-999.0,54,-99.99,,,0.00,134,weatherlink.com 1.10,2013-02-20 13:20:00,
2013-02-20 08:35:00,30.5,15.0,29.86,NW,315,12.0,-999.0,53,-99.99,,,0.00,163,weatherlink.com 1.10,2013-02-20 13:35:00,
2013-02-20 08:50:00,30.7,15.0,29.86,West,273,10.0,-999.0,52,-99.99,,,0.00,176,weatherlink.com 1.10,2013-02-20 13:50:00,
2013-02-20 09:05:00,30.2,16.0,29.86,SW,234,5.0,-999.0,56,-99.99,,,0.00,74,weatherlink.com 1.10,2013-02-20 14:05:00,
2013-02-20 09:19:00,30.8,16.0,29.86,West,267,9.0,-999.0,55,-99.99,,,0.00,455,weatherlink.com 1.10,2013-02-20 14:19:00,
2013-02-20 09:34:00,31.1,17.0,29.86,West,275,4.0,-999.0,57,-99.99,,,0.00,534,weatherlink.com 1.10,2013-02-20 14:34:00,
2013-02-20 09:50:00,30.5,17.0,29.86,West,264,9.0,-999.0,57,-99.99,,,0.00,162,weatherlink.com 1.10,2013-02-20 14:50:00,
2013-02-20 10:04:00,30.7,16.0,29.86,WNW,290,2.0,-999.0,55,-99.99,,,0.00,524,weatherlink.com 1.10,2013-02-20 15:04:00,
2013-02-20 10:20:00,31.4,16.0,29.86,WNW,294,4.0,-999.0,53,-99.99,,,0.00,554,weatherlink.com 1.10,2013-02-20 15:20:00,
2013-02-20 10:35:00,31.2,14.0,29.86,West,281,12.0,-999.0,49,-99.99,,,0.00,253,weatherlink.com 1.10,2013-02-20 15:35:00,
2013-02-20 10:50:00,31.3,14.0,29.85,WNW,290,10.0,-999.0,50,-99.99,,,0.00,682,weatherlink.com 1.10,2013-02-20 15:50:00,
2013-02-20 11:05:00,32.1,14.0,29.85,WNW,285,10.0,-999.0,48,-99.99,,,0.00,731,weatherlink.com 1.10,2013-02-20 16:05:00,
2013-02-20 11:20:00,32.6,14.0,29.85,West,272,10.0,-999.0,46,-99.99,,,0.00,285,weatherlink.com 1.10,2013-02-20 16:20:00,
2013-02-20 11:35:00,32.2,13.0,29.85,West,279,8.0,-999.0,45,-99.99,,,0.00,668,weatherlink.com 1.10,2013-02-20 16:35:00,
2013-02-20 11:50:00,31.2,13.0,29.85,West,261,3.0,-999.0,47,-99.99,,,0.00,712,weatherlink.com 1.10,2013-02-20 16:50:00,
2013-02-20 12:05:00,32.3,13.0,29.85,WNW,302,8.0,-999.0,46,-99.99,,,0.00,271,weatherlink.com 1.10,2013-02-20 17:05:00,
2013-02-20 12:20:00,32.8,13.0,29.84,WSW,248,8.0,-999.0,44,-99.99,,,0.00,777,weatherlink.com 1.10,2013-02-20 17:20:00,
2013-02-20 12:35:00,32.5,13.0,29.84,WNW,284,6.0,-999.0,45,-99.99,,,0.00,281,weatherlink.com 1.10,2013-02-20 17:35:00,
2013-02-20 12:50:00,32.1,13.0,29.84,WSW,254,6.0,-999.0,45,-99.99,,,0.00,338,weatherlink.com 1.10,2013-02-20 17:50:00,
2013-02-20 13:05:00,31.6,12.0,29.84,WNW,292,3.0,-999.0,45,-99.99,,,0.00,230,weatherlink.com 1.10,2013-02-20 18:05:00,
2013-02-20 13:20:00,31.3,12.0,29.84,West,262,13.0,-999.0,45,-99.99,,,0.00,209,weatherlink.com 1.10,2013-02-20 18:20:00,
2013-02-20 13:35:00,32.0,13.0,29.84,WNW,300,7.0,-999.0,46,-99.99,,,0.00,320,weatherlink.com 1.10,2013-02-20 18:35:00,
2013-02-20 13:50:00,31.0,12.0,29.85,WNW,297,8.0,-999.0,46,-99.99,,,0.00,216,weatherlink.com 1.10,2013-02-20 18:50:00,
2013-02-20 14:05:00,32.7,13.0,29.85,West,268,12.0,-999.0,44,-99.99,,,0.00,621,weatherlink.com 1.10,2013-02-20 19:05:00,
2013-02-20 14:20:00,32.0,13.0,29.85,West,266,11.0,-999.0,46,-99.99,,,0.00,624,weatherlink.com 1.10,2013-02-20 19:20:00,
2013-02-20 14:35:00,31.0,11.0,29.86,NW,310,10.0,-999.0,44,-99.99,,,0.00,200,weatherlink.com 1.10,2013-02-20 19:35:00,
2013-02-20 14:50:00,31.2,10.0,29.86,NW,319,8.0,-999.0,42,-99.99,,,0.00,199,weatherlink.com 1.10,2013-02-20 19:50:00,
2013-02-20 15:05:00,30.7,11.0,29.86,WNW,286,11.0,-999.0,44,-99.99,,,0.00,132,weatherlink.com 1.10,2013-02-20 20:05:00,
2013-02-20 15:20:00,30.8,12.0,29.87,West,279,19.0,-999.0,45,-99.99,,,0.00,114,weatherlink.com 1.10,2013-02-20 20:20:00,
2013-02-20 15:35:00,30.4,11.0,29.87,NW,313,7.0,-999.0,45,-99.99,,,0.00,162,weatherlink.com 1.10,2013-02-20 20:35:00,
2013-02-20 15:50:00,30.6,11.0,29.88,West,271,8.0,-999.0,45,-99.99,,,0.00,283,weatherlink.com 1.10,2013-02-20 20:50:00,
2013-02-20 16:05:00,31.0,12.0,29.88,West,272,8.0,-999.0,45,-99.99,,,0.00,183,weatherlink.com 1.10,2013-02-20 21:05:00,
2013-02-20 16:20:00,30.5,11.0,29.88,NW,311,8.0,-999.0,45,-99.99,,,0.00,165,weatherlink.com 1.10,2013-02-20 21:20:00,
2013-02-20 16:35:00,30.2,11.0,29.88,West,276,11.0,-999.0,45,-99.99,,,0.00,46,weatherlink.com 1.10,2013-02-20 21:35:00,
2013-02-20 16:51:00,30.0,12.0,29.89,WNW,292,5.0,-999.0,48,-99.99,,,0.00,49,weatherlink.com 1.10,2013-02-20 21:51:00,
2013-02-20 17:06:00,29.6,12.0,29.89,WSW,257,6.0,-999.0,49,-99.99,,,0.00,35,weatherlink.com 1.10,2013-02-20 22:06:00,
2013-02-20 17:20:00,29.4,12.0,29.90,WNW,286,9.0,-999.0,48,-99.99,,,0.00,12,weatherlink.com 1.10,2013-02-20 22:20:00,
2013-02-20 17:35:00,29.4,12.0,29.90,West,267,9.0,-999.0,49,-99.99,,,0.00,5,weatherlink.com 1.10,2013-02-20 22:35:00,
2013-02-20 17:51:00,29.2,13.0,29.91,West,268,7.0,-999.0,50,-99.99,,,0.00,0,weatherlink.com 1.10,2013-02-20 22:51:00,
2013-02-20 18:06:00,28.9,13.0,29.93,WNW,286,6.0,-999.0,51,-99.99,,,0.00,0,weatherlink.com 1.10,2013-02-20 23:06:00,
2013-02-20 18:21:00,28.9,12.0,29.93,WNW,286,5.0,-999.0,50,-99.99,,,0.00,0,weatherlink.com 1.10,2013-02-20 23:21:00,
2013-02-20 18:36:00,28.7,13.0,29.93,West,263,5.0,-999.0,52,-99.99,,,0.00,0,weatherlink.com 1.10,2013-02-20 23:36:00,
2013-02-20 18:51:00,28.8,13.0,29.94,WNW,283,3.0,-999.0,53,-99.99,,,0.00,0,weatherlink.com 1.10,2013-02-20 23:51:00,
2013-02-20 19:06:00,28.9,13.0,29.95,West,267,9.0,-999.0,51,-99.99,,,0.00,0,weatherlink.com 1.10,2013-02-21 00:06:00,
2013-02-20 19:21:00,28.9,13.0,29.95,WNW,286,4.0,-999.0,51,-99.99,,,0.00,0,weatherlink.com 1.10,2013-02-21 00:21:00,
2013-02-20 19:35:00,28.7,13.0,29.95,West,276,8.0,-999.0,51,-99.99,,,0.00,0,weatherlink.com 1.10,2013-02-21 00:35:00,
2013-02-20 19:50:00,28.6,13.0,29.95,WNW,284,9.0,-999.0,52,-99.99,,,0.00,0,weatherlink.com 1.10,2013-02-21 00:50:00,
2013-02-20 20:05:00,28.5,13.0,29.95,WNW,289,9.0,-999.0,52,-99.99,,,0.00,0,weatherlink.com 1.10,2013-02-21 01:05:00,
2013-02-20 20:20:00,28.3,13.0,29.95,NW,315,10.0,-999.0,52,-99.99,,,0.00,0,weatherlink.com 1.10,2013-02-21 01:20:00,
2013-02-20 20:36:00,28.1,12.0,29.95,WNW,297,6.0,-999.0,52,-99.99,,,0.00,0,weatherlink.com 1.10,2013-02-21 01:36:00,
2013-02-20 20:50:00,27.5,11.0,29.95,NNW,334,9.0,-999.0,50,-99.99,,,0.00,0,weatherlink.com 1.10,2013-02-21 01:50:00,
2013-02-20 21:06:00,27.3,10.0,29.96,WNW,293,5.0,-999.0,49,-99.99,,,0.00,0,weatherlink.com 1.10,2013-02-21 02:06:00,
2013-02-20 21:20:00,27.1,11.0,29.96,West,278,12.0,-999.0,50,-99.99,,,0.00,0,weatherlink.com 1.10,2013-02-21 02:20:00,
2013-02-20 21:36:00,26.8,11.0,29.96,WNW,287,5.0,-999.0,51,-99.99,,,0.00,0,weatherlink.com 1.10,2013-02-21 02:36:00,
2013-02-20 21:51:00,26.6,11.0,29.96,WNW,283,5.0,-999.0,51,-99.99,,,0.00,0,weatherlink.com 1.10,2013-02-21 02:51:00,
2013-02-20 22:06:00,26.5,10.0,29.97,West,263,4.0,-999.0,51,-99.99,,,0.00,0,weatherlink.com 1.10,2013-02-21 03:06:00,
2013-02-20 22:21:00,26.4,10.0,29.97,West,281,7.0,-999.0,51,-99.99,,,0.00,0,weatherlink.com 1.10,2013-02-21 03:21:00,
2013-02-20 22:36:00,26.3,10.0,29.97,West,279,8.0,-999.0,51,-99.99,,,0.00,0,weatherlink.com 1.10,2013-02-21 03:36:00,
2013-02-20 22:51:00,26.1,11.0,29.98,West,271,10.0,-999.0,52,-99.99,,,0.00,0,weatherlink.com 1.10,2013-02-21 03:51:00,
2013-02-20 23:06:00,25.9,10.0,29.97,WNW,292,4.0,-999.0,52,-99.99,,,0.00,0,weatherlink.com 1.10,2013-02-21 04:06:00,
2013-02-20 23:21:00,25.8,10.0,29.98,NW,313,6.0,-999.0,52,-99.99,,,0.00,0,weatherlink.com 1.10,2013-02-21 04:21:00,
2013-02-20 23:36:00,25.6,10.0,29.98,West,270,13.0,-999.0,53,-99.99,,,0.00,0,weatherlink.com 1.10,2013-02-21 04:36:00,
2013-02-20 23:51:00,25.5,10.0,29.98,WNW,292,8.0,-999.0,53,-99.99,,,0.00,0,weatherlink.com 1.10,2013-02-21 04:51:00,